Location: Proctor
(47.8934°N, 114.3048°W)
Time: 20:56:13
(UTC+00:00)

ISS - Visible Passes

Search period start: 21 May 2024 00:00
Search period end: 31 May 2024 00:00
Orbit: 409 x 414 km, 51.6° (Epoch: 21 May)

Date Brightness Start Highest point End Pass type
(mag) Time Alt. Az. Time Alt. Az. Time Alt. Az.
21 May -3.6 05:06:57 10° WNW 05:10:17 69° NNE 05:12:14 22° E visible
21 May -1.6 06:43:51 10° W 06:45:01 18° W 06:45:01 18° W visible
22 May -3.1 04:17:00 10° WNW 04:20:16 53° NNE 04:23:33 10° E visible
22 May -3.3 05:53:43 10° WNW 05:56:45 43° SW 05:56:45 43° SW visible
23 May -3.8 05:03:39 10° WNW 05:06:58 67° SSW 05:08:29 29° SE visible
24 May -3.8 04:13:35 10° WNW 04:16:56 84° NNE 04:20:12 10° ESE visible
24 May -2.0 05:50:42 10° W 05:52:58 20° SW 05:52:58 20° SW visible
25 May -2.7 05:00:19 10° W 05:03:20 32° SW 05:04:41 23° S visible
26 May -3.4 04:10:03 10° WNW 04:13:18 51° SSW 04:16:23 11° SE visible
27 May -1.6 04:57:18 10° W 04:59:22 16° SW 05:00:53 12° SSW visible
28 May -2.1 04:06:34 10° W 04:09:20 24° SW 04:12:06 10° SSE visible
